Location: Bagnolo San Vito
(45.0833°N, 10.8833°E)
Time: 23:06:54
(UTC+00:00)

Meteor 1-23 Rocket - Pass Details

Date: 03 March 2021
Orbit: 838 x 888 km, 81.3° (Epoch: 17 April)

Event Time Altitude Azimuth Distance (km) Brightness Sun altitude
Rises 19:22:11 0° 351° (N) 3,406 7.7 -24.5°
Reaches altitude 10° 19:24:36 10° 353° (N) 2,471 6.9 -24.9°
Maximum altitude 19:30:12 71° 78° (ENE) 897 4.1 -25.9°
Enters shadow 19:30:14 71° 82° (E) 897 4.0 -25.9°
